sat.trackr.live / text

‹ back to catalog

UNKNOWN

NORAD 87681

UNKNOWN UNKNOWN UNKNOWN

§ Identity

Operator
Country
Launch date
Launch site
Launch vehicle
Mass (kg)
RCS (m²)

External: N2YO · Heavens-Above

§ Orbital elements

Epoch: 2026-09-16T03:10:10.943904Z

Period
104.99 min
Inclination
66.7377°
Eccentricity
0.0156644
Mean motion
13.71594454 rev/d
Perigee alt
878.4 km
Apogee alt
1,109.3 km
Semi-major
7,372.0 km
B*
4.1607e-4
RAAN
161.3330°
Arg perigee
334.1900°
Mean anomaly
25.1411°
Rev number
63,987

§ Raw data

UNKNOWN1 87681U          26259.13207111  .00000336  00000+0  41607-3 0  99922 87681  66.7377 161.3330 0156644 334.1900  25.1411 13.71594454639871

JSON: /api/v1/satellites/87681 · /tle

For live sub-satellite position, see the globe view (requires WebGL).

§ Visibility from observer

Set your observer location to see the next 7 days of passes ≥ 10°. The values pass through the URL so the page stays shareable.

No JS? Fill the form by hand. The geolocation button needs JavaScript.